Location: Avenches
(46.8809°N, 7.0410°E)
Time: 07:45:27
(UTC+00:00)

Cosmos 2058 Rocket - Pass Details

Date: 30 March 2020
Orbit: 610 x 640 km, 82.5° (Epoch: 02 June)

Event Time Altitude Azimuth Distance (km) Brightness Sun altitude
Exits shadow 20:42:39 42° 23° (NNE) 923 4.0 -26.2°
Drops below altitude 10° 20:45:42 10° 13° (NNE) 2,043 6.0 -26.6°
Sets 20:47:57 0° 11° (NNE) 2,956 6.9 -26.9°
